Wind_Speed
9 9 10 10 10 10 11 12 12 13 13 14 15 16 18 19 20 20 21 21 21 22 22 23 23 24 24 24 24 25 25 26 25 26 27 27 27 27 27 28 28 28 28
10 10 10 11 12 12 12 12 12 12 13 14 15 16 17 19 20 21 22 23 23 23 24 24 24 25 26 26 26 26 27 27 26 26 27 28 28 29 29 29 30 30 30
11 10 11 12 12 13 13 13 13 13 13 14 14 16 17 19 21 21 22 23 24 25 26 26 26 26 26 26 27 27 27 27 27 28 28 29 30 31 31 31 31 32 32
11 10 12 13 13 13 13 13 14 14 15 15 16 17 18 19 20 21 23 24 25 26 26 26 27 27 26 26 27 27 27 28 28 28 29 30 30 31 32 32 33 32 33
11 11 12 13 13 13 14 15 15 16 16 16 17 18 19 20 20 21 22 23 23 24 25 26 26 26 26 26 26 27 27 27 28 28 29 30 31 31 32 33 33 33 33
12 12 13 13 13 14 14 15 16 17 17 18 18 19 19 20 21 21 21 21 21 22 22 23 24 25 25 25 26 27 28 28 28 29 30 31 31 31 32 33 33 34 34
13 14 14 14 14 15 15 15 16 17 18 18 19 19 19 20 20 20 20 19 19 19 21 23 24 24 25 26 27 27 27 28 29 30 31 30 31 31 31 32 33 34 34
15 16 16 16 16 16 16 16 17 18 18 18 18 18 19 19 19 19 19 19 20 20 21 22 23 24 25 26 27 28 29 29 30 31 31 31 31 32 32 33 34 35 36
16 16 17 18 18 17 17 17 17 17 17 17 17 17 17 18 18 18 18 19 20 20 21 22 23 24 25 26 28 29 29 30 31 31 31 31 32 32 34 35 36 36 36
17 17 18 18 18 18 18 18 19 19 18 17 17 17 18 18 18 19 19 19 20 21 23 24 24 25 26 27 28 29 30 31 32 32 32 33 33 33 35 35 36 36 36
18 18 19 19 19 18 18 18 19 19 19 18 18 18 19 19 20 20 20 21 21 22 24 25 26 27 27 28 29 30 31 32 33 33 34 34 35 35 36 37 37 38 38
19 19 19 19 19 19 19 19 19 19 19 19 19 19 19 20 20 21 21 22 23 23 24 25 26 26 27 29 30 30 32 33 34 34 35 36 36 37 37 38 38 39 40
20 20 20 20 20 20 20 20 20 20 20 20 20 20 20 20 21 22 22 22 23 24 25 26 27 28 28 29 30 31 32 33 33 34 35 36 36 37 38 38 39 40 40
21 21 21 21 21 21 20 20 21 21 21 21 21 21 21 21 21 22 23 24 25 25 26 26 27 28 29 30 30 30 31 32 34 35 36 36 37 37 37 38 38 39 39
21 21 21 22 21 21 21 21 21 22 22 22 21 21 22 22 22 23 24 25 25 26 27 28 29 29 30 31 32 32 33 34 36 36 36 37 36 37 37 38 39 40 40
21 21 21 21 21 20 20 21 21 21 21 21 21 21 21 22 23 24 24 26 27 28 29 30 30 31 32 32 33 34 35 35 37 37 37 37 38 39 39 39 39 40 41
21 21 21 21 20 20 20 21 21 21 21 21 21 21 21 22 23 24 26 27 28 29 30 31 32 32 33 33 34 34 35 36 37 37 37 38 38 39 39 39 39 39 39
21 20 20 20 20 20 21 21 20 20 20 20 20 21 22 23 24 25 27 28 29 29 30 31 31 32 33 33 33 33 34 34 34 35 36 36 37 37 38 38 37 37 37
20 20 20 20 20 20 20 20 20 20 20 21 21 22 23 24 25 26 27 28 29 29 30 30 31 31 32 32 32 32 33 33 34 35 35 36 36 36 36 36 36 36 35
20 20 20 19 20 20 20 20 20 21 21 22 22 22 23 25 25 26 27 28 28 29 29 30 30 31 31 31 31 32 33 34 34 35 35 35 35 35 35 35 35 34 34
19 19 19 20 20 20 20 20 20 21 21 22 22 23 24 25 26 26 27 28 28 29 29 30 30 31 31 32 33 33 33 34 34 35 35 35 35 35 34 34 33 33 32
19 19 20 19 19 19 19 20 20 20 21 21 23 24 25 25 26 27 27 28 28 29 29 30 30 31 32 32 33 33 33 34 34 34 34 33 33 32 32 31 31 30 29
19 19 19 19 19 19 20 20 21 21 22 22 23 24 25 26 26 26 27 27 28 28 29 30 30 31 31 31 31 32 32 32 32 32 31 31 30 30 30 29 28 28 27
19 19 19 19 19 19 20 21 21 22 22 23 23 24 25 25 25 26 26 27 27 28 29 29 30 31 31 31 31 32 32 31 31 30 29 29 28 28 27 27 26 26 25
18 18 19 19 19 20 20 21 21 22 23 23 23 24 24 24 25 25 26 27 28 29 30 30 30 31 31 31 31 31 30 30 29 28 28 27 27 26 25 25 24 24 23
18 18 18 19 20 20 20 21 21 22 22 23 23 23 24 25 26 27 27 28 29 30 30 30 30 30 30 30 29 29 28 27 27 26 26 25 24 24 24 23 23 23 23
Wind_Direction
282 281 282 281 280 282 277 276 275 271 270 269 265 261 262 262 262 262 262 261 262 263 263 264 265 266 267 267 267 269 270 270 270 269 270 272 274 274 274 275 275 274 275
280 278 280 282 282 285 281 276 275 275 275 273 270 264 264 265 265 266 265 262 262 263 264 265 265 267 268 267 267 268 269 270 271 273 273 274 275 275 274 274 275 275 275
282 284 283 285 288 286 285 278 274 274 276 276 275 272 270 268 267 269 268 266 265 265 266 265 266 267 268 268 267 268 270 271 272 274 273 274 274 275 276 276 276 277 275
291 294 296 291 289 289 285 283 282 279 279 278 276 276 275 273 272 271 270 269 266 265 265 265 266 267 267 268 269 269 271 273 274 275 275 275 275 275 275 275 276 277 278
297 298 302 299 295 294 290 287 286 286 285 282 280 278 278 277 276 274 274 273 270 268 266 266 267 268 269 269 270 272 273 275 275 275 275 275 275 276 276 276 276 277 278
305 303 304 303 301 298 293 291 290 288 286 283 280 280 281 281 278 279 280 275 273 271 268 267 269 270 271 270 272 273 274 276 276 277 277 277 276 277 278 277 276 277 278
305 303 302 302 301 300 297 294 292 290 288 284 281 281 281 281 279 279 279 276 275 275 273 270 269 269 269 272 273 274 275 276 278 278 279 279 279 279 279 279 279 280 279
300 300 299 298 296 297 297 295 294 294 290 287 284 281 280 279 280 278 277 276 276 278 277 273 271 272 273 276 277 277 277 278 279 279 279 280 280 280 280 280 279 279 279
300 298 297 296 294 294 294 293 294 294 292 290 286 283 282 283 283 281 279 278 278 277 276 274 274 276 279 279 278 279 279 280 280 280 281 281 281 280 281 282 282 282 282
296 297 297 297 296 293 292 293 291 291 289 288 287 286 286 286 286 284 283 282 281 280 279 279 279 279 281 280 280 280 281 282 282 281 282 282 283 283 283 283 284 284 284
293 295 295 295 296 294 293 294 293 291 289 286 286 285 285 285 285 285 285 285 284 284 284 283 281 281 281 281 283 283 284 284 283 283 284 284 284 285 286 285 285 286 286
292 293 293 293 294 294 293 293 293 292 290 285 285 285 285 285 285 286 288 287 286 286 287 287 285 285 285 285 286 287 287 286 287 286 287 287 288 287 288 288 288 288 288
293 293 292 292 292 292 292 291 290 291 291 289 286 283 282 282 282 284 285 287 289 289 289 288 289 289 290 290 289 290 289 290 290 289 289 290 289 288 289 288 289 290 290
292 292 291 291 291 291 291 291 290 289 290 289 287 286 287 286 284 283 285 287 290 291 291 291 291 292 292 293 292 291 290 290 291 291 291 292 291 291 290 290 290 291 291
291 291 290 291 289 288 287 289 290 289 288 288 288 287 288 288 288 289 291 292 293 294 295 294 294 294 294 293 293 293 293 292 291 292 293 293 293 293 292 292 291 291 292
290 290 290 290 286 284 286 289 290 290 289 289 288 287 287 288 290 291 292 293 294 295 296 295 294 294 295 294 294 293 293 292 292 292 293 294 293 294 294 293 292 293 293
288 289 287 286 284 285 288 290 290 290 290 290 291 291 291 291 292 293 294 295 296 297 297 297 296 296 296 295 294 294 294 294 294 294 294 295 294 294 294 294 295 295 295
286 286 284 285 286 288 289 291 291 291 291 292 292 293 294 295 295 295 296 297 298 299 298 299 299 299 298 298 298 298 297 297 297 297 297 297 297 297 297 297 297 297 296
283 284 284 285 287 288 289 290 291 293 293 293 295 296 297 299 299 298 299 300 301 301 301 301 302 302 302 302 302 301 300 300 300 300 299 299 299 299 299 298 298 298 297
282 283 284 285 287 288 290 291 292 293 295 296 297 298 300 301 302 303 304 304 304 304 304 304 304 305 306 305 304 303 302 302 303 303 302 302 301 301 300 299 299 299 299
280 282 282 284 287 289 291 293 294 296 297 298 298 299 301 303 304 305 306 306 306 305 305 305 306 306 307 306 305 305 305 305 305 305 304 303 303 302 301 301 300 300 300
278 281 282 283 286 289 292 295 298 299 300 301 302 303 303 305 306 307 307 307 307 307 308 308 309 309 308 307 307 307 307 307 308 308 307 306 306 305 304 304 303 302 302
275 279 283 285 288 290 292 295 297 299 301 302 303 304 305 307 308 309 309 309 309 310 310 310 310 310 310 310 310 310 310 310 310 310 309 309 308 307 306 305 304 304 303
277 280 283 286 289 291 293 296 298 301 302 304 305 306 308 309 310 310 311 311 312 312 313 313 313 312 312 311 311 311 311 311 312 312 312 311 311 310 309 308 307 307 306
277 279 283 286 290 293 295 297 300 302 304 305 307 308 309 310 311 312 313 314 314 314 314 314 314 314 314 313 312 312 312 312 313 313 313 313 312 312 311 310 310 309 309
277 280 284 289 292 295 298 300 301 302 304 307 309 310 311 312 313 314 315 315 315 315 315 315 315 315 315 315 315 315 315 315 315 316 316 316 315 314 313 312 311 311 311
Height
5868 5868 5867 5867 5866 5865 5865 5865 5865 5865 5865 5865 5865 5865 5866 5866 5866 5866 5867 5867 5867 5868 5868 5868 5868 5868 5869 5868 5868 5868 5868 5868 5869 5869 5868 5867 5867 5866 5866 5865 5864 5864 5863
5866 5865 5865 5864 5864 5863 5862 5862 5862 5862 5862 5861 5861 5861 5861 5861 5861 5861 5861 5861 5861 5862 5862 5862 5863 5862 5862 5862 5862 5862 5862 5862 5862 5862 5861 5861 5860 5859 5858 5858 5857 5856 5855
5863 5863 5862 5861 5861 5860 5859 5859 5859 5858 5858 5857 5857 5857 5856 5856 5856 5855 5855 5855 5855 5856 5856 5856 5856 5856 5856 5856 5856 5856 5856 5855 5855 5855 5854 5854 5853 5852 5851 5850 5849 5848 5847
5861 5860 5859 5858 5857 5857 5856 5855 5855 5854 5854 5853 5853 5852 5851 5851 5850 5850 5849 5849 5848 5848 5849 5849 5849 5850 5850 5850 5849 5849 5849 5848 5848 5847 5847 5846 5845 5844 5842 5841 5840 5839 5838
5859 5858 5857 5855 5854 5853 5852 5852 5851 5850 5849 5849 5848 5847 5846 5846 5845 5844 5843 5842 5841 5841 5842 5842 5843 5843 5843 5843 5843 5842 5842 5841 5841 5840 5839 5838 5837 5835 5834 5832 5831 5830 5829
5856 5855 5854 5853 5851 5850 5849 5848 5847 5846 5845 5844 5843 5842 5841 5840 5839 5838 5837 5836 5835 5835 5836 5836 5837 5837 5837 5836 5836 5835 5835 5834 5833 5832 5831 5830 5828 5827 5826 5824 5823 5822 5821
5854 5852 5851 5849 5848 5847 5845 5844 5843 5842 5840 5839 5838 5837 5836 5835 5834 5833 5833 5832 5831 5831 5830 5830 5830 5830 5830 5830 5829 5829 5828 5827 5826 5825 5823 5822 5820 5819 5817 5816 5814 5813 5811
5850 5848 5847 5846 5844 5843 5841 5840 5839 5837 5835 5834 5833 5832 5831 5830 5829 5829 5828 5827 5826 5826 5825 5825 5824 5824 5823 5823 5822 5821 5820 5819 5818 5817 5815 5814 5812 5810 5809 5807 5805 5803 5801
5846 5844 5843 5842 5840 5839 5837 5836 5834 5832 5831 5830 5828 5828 5827 5826 5825 5824 5823 5822 5822 5821 5820 5819 5818 5818 5817 5816 5815 5814 5812 5811 5809 5808 5807 5805 5803 5801 5799 5798 5796 5794 5791
5842 5840 5839 5837 5836 5834 5833 5831 5829 5828 5827 5825 5824 5823 5822 5821 5820 5819 5818 5818 5817 5816 5814 5813 5812 5811 5810 5808 5807 5806 5804 5803 5801 5800 5798 5796 5794 5792 5790 5788 5786 5783 5781
5837 5836 5834 5833 5831 5829 5828 5826 5825 5823 5822 5820 5820 5819 5818 5817 5815 5814 5813 5812 5811 5810 5808 5807 5806 5804 5802 5801 5800 5798 5796 5794 5792 5790 5789 5787 5785 5782 5780 5778 5775 5773 5771
5833 5831 5829 5828 5826 5824 5823 5822 5821 5819 5817 5816 5815 5813 5812 5811 5810 5809 5808 5806 5805 5804 5802 5801 5799 5797 5795 5793 5791 5789 5787 5785 5783 5781 5779 5777 5775 5772 5770 5767 5765 5762 5759
5827 5826 5824 5822 5821 5819 5818 5817 5816 5814 5813 5811 5809 5808 5806 5805 5804 5803 5802 5801 5799 5798 5796 5794 5792 5790 5788 5786 5783 5781 5779 5777 5774 5772 5770 5767 5764 5762 5759 5756 5753 5750 5747
5822 5820 5818 5817 5815 5814 5812 5811 5810 5809 5807 5806 5804 5803 5801 5800 5799 5797 5796 5795 5793 5791 5789 5787 5785 5783 5780 5778 5775 5773 5770 5768 5765 5763 5760 5757 5754 5751 5748 5745 5742 5739 5736
5816 5814 5813 5811 5810 5808 5807 5806 5804 5803 5801 5800 5799 5797 5796 5794 5793 5791 5790 5788 5786 5784 5782 5780 5777 5775 5773 5770 5767 5765 5762 5759 5756 5753 5749 5746 5743 5740 5737 5734 5731 5728 5725
5810 5809 5807 5806 5804 5803 5801 5800 5798 5797 5795 5794 5792 5791 5789 5788 5787 5785 5783 5781 5779 5777 5775 5772 5770 5767 5764 5762 5759 5755 5752 5749 5746 5743 5739 5736 5733 5729 5726 5722 5719 5716 5713
5804 5803 5802 5800 5799 5797 5796 5794 5793 5791 5789 5788 5786 5785 5783 5782 5780 5778 5776 5774 5772 5769 5767 5764 5761 5758 5755 5752 5749 5746 5743 5739 5736 5733 5729 5726 5722 5718 5715 5711 5708 5704 5701
5798 5797 5796 5795 5793 5792 5790 5789 5787 5786 5784 5782 5781 5779 5777 5775 5773 5771 5769 5767 5764 5761 5758 5755 5752 5749 5746 5743 5740 5736 5733 5730 5726 5723 5719 5715 5712 5708 5704 5701 5697 5694 5690
5793 5792 5791 5789 5788 5786 5785 5783 5782 5780 5778 5777 5775 5773 5771 5769 5766 5764 5761 5759 5756 5753 5750 5747 5744 5740 5737 5734 5731 5727 5724 5720 5717 5713 5709 5706 5702 5698 5694 5691 5687 5684 5680
5787 5786 5785 5784 5783 5781 5779 5778 5776 5775 5773 5770 5769 5767 5765 5763 5760 5757 5754 5751 5748 5745 5742 5739 5736 5732 5729 5726 5722 5719 5715 5711 5707 5703 5700 5696 5692 5688 5684 5681 5677 5674 5670
5781 5780 5779 5778 5777 5776 5774 5772 5771 5769 5767 5765 5763 5761 5758 5756 5753 5750 5748 5745 5741 5738 5735 5731 5728 5724 5721 5717 5713 5710 5706 5702 5698 5694 5690 5686 5682 5678 5675 5671 5667 5664 5661
5775 5775 5774 5773 5772 5770 5769 5767 5765 5763 5761 5759 5757 5755 5752 5750 5747 5744 5741 5737 5734 5731 5727 5723 5720 5716 5712 5709 5705 5701 5697 5693 5689 5685 5681 5677 5673 5669 5665 5662 5658 5655 5652
5770 5769 5769 5768 5766 5765 5764 5762 5760 5758 5756 5753 5751 5748 5746 5743 5740 5737 5734 5730 5727 5723 5720 5716 5712 5708 5704 5700 5696 5693 5689 5685 5681 5676 5672 5668 5664 5661 5657 5653 5650 5647 5644
5765 5764 5763 5762 5761 5760 5758 5756 5754 5752 5750 5747 5745 5742 5739 5736 5733 5730 5727 5724 5720 5716 5712 5709 5705 5701 5697 5692 5688 5684 5680 5676 5672 5668 5664 5660 5656 5653 5649 5646 5643 5640 5637
5759 5759 5758 5757 5756 5754 5752 5750 5748 5746 5744 5741 5739 5736 5733 5730 5727 5724 5720 5717 5713 5709 5705 5701 5697 5693 5689 5685 5680 5676 5672 5668 5664 5660 5657 5653 5649 5646 5642 5639 5636 5633 5630
5754 5754 5753 5751 5750 5748 5746 5744 5742 5740 5738 5735 5732 5730 5727 5724 5721 5717 5714 5710 5706 5702 5698 5694 5690 5685 5681 5677 5673 5669 5665 5661 5657 5654 5650 5646 5643 5639 5636 5633 5630 5627 5624